Station CHCM2 - 8573927 - Chesapeake City, MD Image indicating link to RSS feed of recent meteorological observations for station CHCM2


Conditions at CHCM2 as of
(5:00 pm EDT)
2100 GMT on 05/26/2024:
     

Click on the graph icon in the table below to see a time series plot of the last five days of that observation.

5-day plot - Atmospheric Pressure Atmospheric Pressure (PRES):29.87 in
5-day plot - Air Temperature Air Temperature (ATMP): 78.8 °F
5-day plot - Water Temperature Water Temperature (WTMP): 75.7 °F
5-day plot - Wind Speed at 10 Meters Wind Speed at 10 meters (WSPD10M): 9.7 kts
5-day plot - Wind Speed at 20 Meters Wind Speed at 20 meters (WSPD20M): 9.7 kts
NOS Water Level Observation Network Water Level
Previous observations
TIME
(EDT)
5-day plot - Wind Direction
WDIR
 
5-day plot - Wind Speed
WSPD
kts
5-day plot - Wind Gust
GST
kts
5-day plot - Wave Height
WVHT
ft
5-day plot - Dominant Wave Period
DPD
sec
5-day plot - Average Wave Period
APD
sec
5-day plot - Mean Wave Direction
MWD
 
5-day plot - Atmospheric Pressure
PRES
in
5-day plot - Pressure Tendency
PTDY
in
5-day plot - Air Temperature
ATMP
°F
5-day plot - Water Temperature
WTMP
°F
5-day plot - Dew Point
DEWP
°F
5-day plot - Salinity
SAL
psu
5-day plot - Visibility
VIS
nmi
5-day plot - Tide (above MLLW)
TIDE
ft
2024-05-26 04:54 pm-------29.87- 78.4 75.9----
2024-05-26 04:48 pmSSE 8.9 13.0----29.87- 78.3 75.7----
2024-05-26 04:42 pm S 8.0 14.0----29.87- 78.8 75.6----
2024-05-26 04:36 pm S 8.0 11.1----29.87- 78.6 75.7----
2024-05-26 04:30 pm-------29.87- 78.8 75.6----
2024-05-26 04:24 pm-------29.87- 79.2 75.4----
2024-05-26 04:18 pmSSE 8.0 13.0----29.86- 82.4 75.4----
2024-05-26 04:12 pmSSE 8.0 12.0----29.86- 82.0 75.0----
2024-05-26 04:06 pm S 5.1 12.0----29.86- 82.4 75.0----
2024-05-26 04:00 pm S 8.0 11.1----29.86-0.03- 75.2----
2024-05-26 03:54 pmSSE 5.1 11.1----29.86-- 75.2----
2024-05-26 03:48 pmSSE 6.0 9.9----29.86-- 75.6----
2024-05-26 03:42 pmSSE 5.1 8.0----29.86-- 75.4----
2024-05-26 03:36 pm SE 4.1 6.0----29.86-- 75.6----
2024-05-26 03:30 pmSSE 4.1 6.0----29.86- 80.4 75.7----
2024-05-26 03:24 pm S 5.1 8.9----29.85- 79.7 75.7----
2024-05-26 03:18 pmSSE 6.0 12.0----29.86-- 75.7----
2024-05-26 03:12 pm SE 6.0 9.9----29.86-- 75.7----
2024-05-26 03:06 pmSSE 5.1 6.0----29.86-- 75.7----
2024-05-26 03:00 pm SE 4.1 7.0----29.86-0.06 82.6 75.7----
2024-05-26 02:54 pm SE 4.1 8.0----29.87- 82.4 75.7----
2024-05-26 02:48 pm-------29.87- 83.7 75.6----
2024-05-26 02:42 pm-------29.87- 83.8 75.7----
2024-05-26 02:36 pm-------29.88- 84.7 75.7----
2024-05-26 02:30 pmNNW 1.0 1.9----29.88- 83.3 75.7----
2024-05-26 02:24 pm- 0.0 2.9----29.87- 82.9 75.7----
2024-05-26 02:18 pmNNW 1.9 2.9----29.88- 82.8 75.7----
2024-05-26 02:12 pm N 2.9 4.1----29.88- 82.4 75.7----
2024-05-26 02:06 pmNNW 2.9 4.1----29.88- 82.2 75.6----
2024-05-26 02:00 pm- 0.0 1.9------- 75.6----
2024-05-26 01:54 pm- 0.0 1.0------- 75.4----
2024-05-26 01:48 pm- 0.0 1.9----29.88- 83.3 75.4----
2024-05-26 01:42 pm- 0.0 1.9----29.89- 83.3 75.4----
2024-05-26 01:36 pm N 1.0 1.9----29.89- 82.9 75.4----
2024-05-26 01:30 pm- 0.0 1.9----29.90-- 75.4----
2024-05-26 01:24 pm- 0.0 2.9----29.89-- 75.4----
2024-05-26 01:18 pm E 1.9 2.9----29.89- 82.0 75.2----
2024-05-26 01:12 pm- 0.0 1.0----29.89- 83.3 75.2----
2024-05-26 01:06 pmNNW 1.0 1.9----29.89- 82.0 75.2----
2024-05-26 01:00 pmNNE 1.0 1.9----29.89+0.00 81.9 75.2----
2024-05-26 12:54 pm- 0.0 1.0----29.89- 81.9 75.2----
2024-05-26 12:48 pm- 0.0 1.0----29.89- 82.0 75.0----
2024-05-26 12:42 pm- 0.0 1.9----29.89- 82.0 75.0----
2024-05-26 12:36 pm- 0.0 1.0----29.90- 81.7 75.0----
2024-05-26 12:30 pm- 0.0 1.0----29.90- 81.3 75.0----
2024-05-26 12:24 pmNNW 1.9 2.9----29.90- 80.1 74.8----
2024-05-26 12:18 pm NW 1.9 2.9----29.90- 80.1 74.8----
2024-05-26 12:12 pm NW 1.9 4.1----29.91- 79.3 74.8----
2024-05-26 12:06 pm N 1.9 2.9----29.92- 79.7 74.8----
2024-05-26 12:00 pm E 1.0 4.1----29.92+0.01 80.1 74.7----
2024-05-26 11:54 am E 1.0 2.9----29.92- 81.0 74.7----
2024-05-26 11:48 am- 0.0 1.9----29.92- 80.1 74.7----
2024-05-26 11:42 am E 1.0 2.9----29.92- 79.2 74.5----
2024-05-26 11:36 amENE 2.9 5.1----29.92- 78.6 74.5----
2024-05-26 11:30 am E 1.9 4.1----29.92- 78.8 74.5----
2024-05-26 11:24 amESE 1.9 7.0----29.91- 79.9 74.3----
2024-05-26 11:18 amENE 5.1 7.0----29.91- 77.9 74.5----
2024-05-26 11:12 am E 2.9 4.1----29.91- 78.1 74.3----
2024-05-26 11:06 am NE 1.0 1.9----29.91- 79.7 74.3----
2024-05-26 11:00 am- 0.0 1.9----29.91+0.01 78.8 74.1----
2024-05-26 10:54 am E 1.9 5.1----29.91- 78.1 73.9----
2024-05-26 10:48 am E 2.9 5.1----29.91- 77.5 73.8----
2024-05-26 10:42 am E 1.9 2.9----29.91- 77.4 73.8----
2024-05-26 10:36 am E 2.9 4.1----29.91- 77.2 73.6----
2024-05-26 10:30 am E 2.9 5.1----29.91- 77.0 73.4----
2024-05-26 10:24 am E 4.1 5.1----29.91- 76.8 73.4----
2024-05-26 10:18 am- 0.0 2.9----29.91- 77.7 73.4----
2024-05-26 10:12 amENE 4.1 5.1----29.90- 76.3 73.2----
2024-05-26 10:06 am E 1.9 2.9----29.89- 76.5 73.0----
2024-05-26 10:00 amENE 1.9 2.9----29.89+0.00 76.3 73.0----
2024-05-26 09:54 amENE 2.9 2.9----29.90- 75.7 73.0----
2024-05-26 09:48 am E 1.0 2.9----29.90- 76.1 72.9----
2024-05-26 09:42 am- 0.0 1.9----29.90- 77.4 72.9----
2024-05-26 09:36 am E 1.0 1.9----29.91- 76.1 72.7----
2024-05-26 09:30 amENE 1.0 2.9----29.90-- 72.7----
2024-05-26 09:24 amENE 1.9 5.1----29.91-- 72.5----
2024-05-26 09:18 amENE 1.9 4.1----29.91-- 72.5----
2024-05-26 09:12 am E 1.9 2.9----29.91-- 72.3----
2024-05-26 09:06 am E 2.9 4.1----29.91-- 72.1----
2024-05-26 09:00 amENE 1.9 2.9----29.91+0.04- 72.1----
2024-05-26 08:54 am E 1.9 1.9----29.90-- 72.1----
2024-05-26 08:48 amENE 1.9 2.9----29.91- 73.6 72.1----
2024-05-26 08:42 am E 2.9 4.1----29.90- 73.2 72.0----
2024-05-26 08:36 am E 2.9 4.1----29.90- 72.9 72.1----
2024-05-26 08:30 am E 2.9 2.9----29.90- 72.7 72.1----
2024-05-26 08:24 am E 1.9 4.1----29.89- 72.3 72.0----
2024-05-26 08:18 am E 4.1 4.1----29.89- 71.6 72.0----
2024-05-26 08:12 am E 1.9 2.9----29.89- 71.4 72.0----
2024-05-26 08:06 am E 2.9 2.9----29.89- 71.1 71.8----
2024-05-26 08:00 am-------29.89+0.03 70.9-----
2024-05-26 07:54 am-------29.89- 71.1-----
2024-05-26 07:48 am SE 1.0 1.9----29.89- 71.8 72.0----
2024-05-26 07:42 am E 1.0 1.0----29.89- 71.8 71.8----
2024-05-26 07:36 am- 0.0 1.0----29.89- 71.2 71.8----
2024-05-26 07:30 am- 0.0 1.0----29.89- 70.7 71.6----
2024-05-26 07:24 am E 1.0 1.9----29.89- 70.2 71.6----
2024-05-26 07:18 am- 0.0 1.0----29.89-- 71.6----
2024-05-26 07:12 am- 0.0 1.9----29.89-- 72.0----
2024-05-26 07:06 am- 0.0 1.0----29.89-- 72.5----
2024-05-26 07:00 am- 0.0 1.0----29.89+0.04- 72.5----
2024-05-26 06:54 am- 0.0 1.9----29.89-- 73.0----
2024-05-26 06:48 amNNW 1.0 1.9----29.89-- 72.9----
2024-05-26 06:42 am- 0.0 1.0----29.89-- 72.9----
2024-05-26 06:36 am- 0.0 1.0----29.89-- 72.9----
2024-05-26 06:30 am- 0.0 1.0----29.89- 67.6 73.0----
2024-05-26 06:24 am- 0.0 1.0----29.89- 67.5 73.0----
2024-05-26 06:18 am- 0.0 1.0----29.88-- 73.2----
2024-05-26 06:12 am- 0.0 1.0----29.88-- 73.2----
2024-05-26 06:06 amWSW 1.0 1.0----29.87-- 73.2----
2024-05-26 06:00 am SW 1.0 1.0----29.87+0.02 67.3 73.4----
2024-05-26 05:54 am- 0.0 1.0----29.87- 67.5 73.6----
2024-05-26 05:48 am- 0.0 1.0----29.86- 67.3 73.6----
2024-05-26 05:42 am- 0.0 1.0----29.86- 67.6 73.8----
2024-05-26 05:36 am- 0.0 1.0----29.86- 68.0 73.9----
2024-05-26 05:30 am- 0.0 1.0----29.86- 67.8 74.1----
2024-05-26 05:24 am- 0.0 1.9----29.86- 68.0 74.5----
2024-05-26 05:18 amWSW 1.0 1.0----29.86- 67.8 75.0----
2024-05-26 05:12 amWSW 1.0 1.9----29.86- 68.0 75.0----
2024-05-26 05:06 am SW 1.0 1.9----29.86- 68.2 75.0----
2024-05-26 05:00 am SW 1.9 1.9----29.86+0.00 68.2 75.0----
2024-05-26 04:54 am- 0.0 1.0----29.86- 68.5 75.0----
2024-05-26 04:48 am- 0.0 1.9----29.86-- 75.0----
2024-05-26 04:42 am SW 1.0 1.9----29.86-- 75.0----
2024-05-26 04:36 am- 0.0 1.0----29.85-- 75.0----
2024-05-26 04:30 am- 0.0 1.9----29.85- 68.7 75.0----
2024-05-26 04:24 am E 1.0 1.9----29.85- 68.5 75.2----
2024-05-26 04:18 amENE 1.0 1.9----29.85- 68.7 75.2----
2024-05-26 04:12 amESE 1.9 2.9----29.85- 68.7 75.2----
2024-05-26 04:06 am E 1.9 1.9----29.85- 68.9 75.2----
2024-05-26 04:00 amENE 1.0 1.9----29.85-0.01 68.9 75.2----
2024-05-26 03:54 am- 0.0 1.0----29.85- 68.7 75.2----
2024-05-26 03:48 am- 0.0 0.0----29.85- 68.5 75.2----
2024-05-26 03:42 am- 0.0 1.9----29.85- 68.4 75.2----
2024-05-26 03:36 am- 0.0 1.0----29.85- 68.4 75.2----
2024-05-26 03:30 am- 0.0 1.0----29.85- 68.4 75.2----
2024-05-26 03:24 am- 0.0 1.0----29.85- 68.4 75.2----
2024-05-26 03:18 am- 0.0 1.0----29.85- 68.4 75.2----
2024-05-26 03:12 am- 0.0 1.0----29.85- 68.4 75.2----
2024-05-26 03:06 am- 0.0 1.0----29.85- 68.4 75.2----
2024-05-26 03:00 am- 0.0 1.0----29.85-0.02 68.5 75.4----
2024-05-26 02:54 am- 0.0 1.0----29.85- 68.7 75.4----
2024-05-26 02:48 am SE 1.0 1.9----29.85- 68.5 75.4----
2024-05-26 02:42 am- 0.0 1.9----29.85- 68.9 75.4----
2024-05-26 02:36 amSSE 1.9 1.9----29.85- 68.9 75.4----
2024-05-26 02:30 am S 1.0 1.9----29.85- 68.7 75.4----
2024-05-26 02:24 am S 1.9 1.9----29.85- 68.7 75.4----
2024-05-26 02:18 am SW 1.9 1.9----29.86- 68.9 75.4----
2024-05-26 02:12 am S 1.0 1.9----29.86- 69.3 75.4----
2024-05-26 02:06 amSSE 1.0 2.9----29.86- 69.4 75.4----
2024-05-26 02:00 am S 1.0 1.0----29.85+0.03 69.6 75.6----
2024-05-26 01:54 am- 0.0 1.0----29.85- 70.0 75.6----
2024-05-26 01:48 am- 0.0 1.0----29.85- 70.0 75.6----
2024-05-26 01:42 am- 0.0 1.0----29.86- 70.3 75.6----
2024-05-26 01:36 am- 0.0 1.9----29.86- 70.2 75.4----
2024-05-26 01:30 amSSE 1.0 2.9----29.85- 70.0 75.4----
2024-05-26 01:24 am SE 1.9 1.9----29.85- 70.5 75.4----
2024-05-26 01:18 am- 0.0 1.0----29.86- 71.2 75.4----
2024-05-26 01:12 am- 0.0 1.9----29.86- 71.1 75.4----
2024-05-26 01:06 am NW 1.9 2.9----29.86- 71.2 75.4----
2024-05-26 01:00 am N 1.0 1.9----29.86-0.01 71.4 75.4----
2024-05-26 12:54 am N 1.9 2.9----29.86- 71.6 75.2----
2024-05-26 12:48 am- 0.0 1.9----29.86- 71.6 75.2----
2024-05-26 12:42 am N 1.9 1.9----29.86- 71.6 75.4----
2024-05-26 12:36 am- 0.0 2.9----29.86- 71.4 75.4----
2024-05-26 12:30 am N 2.9 5.1----29.86- 71.4 75.4----
2024-05-26 12:24 am- 0.0 2.9----29.86- 71.6 75.4----
2024-05-26 12:18 amESE 1.9 2.9----29.86- 71.2 75.4----
2024-05-26 12:12 am- 0.0 1.0----29.87- 72.1 75.4----
2024-05-26 12:06 am- 0.0 1.9----29.87- 72.3 75.4----
2024-05-26 12:00 amWNW 1.9 2.9----29.87+0.02 72.7 75.4----
2024-05-25 11:54 pm NW 2.9 4.1----29.87- 72.9 75.4----
2024-05-25 11:48 pmWNW 2.9 4.1----29.87- 73.0 75.4----
2024-05-25 11:42 pmWNW 4.1 5.1----29.87- 73.6 75.4----
2024-05-25 11:36 pm W 2.9 2.9----29.86- 73.6 75.4----
2024-05-25 11:30 pmWSW 1.9 6.0----29.86- 73.8 75.4----
2024-05-25 11:24 pmWNW 5.1 8.0----29.86- 73.6 75.4----
2024-05-25 11:18 pmWNW 8.0 8.9----29.86- 73.6 75.4----
2024-05-25 11:12 pmWNW 4.1 5.1----29.85- 74.3 75.4----
2024-05-25 11:06 pm S 4.1 6.0----29.84- 74.3 75.4----
2024-05-25 11:00 pm SE 1.9 6.0----29.83+0.00 73.2 75.4----
2024-05-25 10:54 pm SE 1.9 5.1----29.84- 73.2 75.4----
2024-05-25 10:48 pmSSE 1.9 4.1----29.85- 73.6 75.6----
2024-05-25 10:42 pm SE 1.9 2.9----29.85- 73.4 75.6----
2024-05-25 10:36 pm SE 2.9 2.9----29.86- 73.2 75.6----
2024-05-25 10:30 pmSSE 1.0 1.9----29.87- 73.8 75.6----
2024-05-25 10:24 pm- 0.0 1.0----29.87- 74.3 75.7----
2024-05-25 10:18 pmWSW 1.0 1.9----29.87- 74.7 75.7----
2024-05-25 10:12 pm- 0.0 0.0----29.87- 74.3 75.7----
2024-05-25 10:06 pm- 0.0 1.0----29.87- 73.9 75.7----
2024-05-25 10:00 pm- 0.0 1.9----29.87+0.06 73.8 75.6----
2024-05-25 09:54 pm- 0.0 1.0----29.87- 73.9 75.7----
2024-05-25 09:48 pm- 0.0 1.9----29.87- 73.9 75.7----
2024-05-25 09:42 pm SE 1.0 1.9----29.87- 73.8 75.7----
2024-05-25 09:36 pm SE 1.0 2.9----29.87- 74.3 75.6----
2024-05-25 09:30 pm- 0.0 1.0----29.86- 75.0 75.6----
2024-05-25 09:24 pm- 0.0 2.9----29.86- 75.0 75.2----
2024-05-25 09:18 pmWNW 1.9 2.9----29.86- 75.2 75.2----
2024-05-25 09:12 pm- 0.0 1.9----29.85- 75.9 75.0----
2024-05-25 09:06 pm E 1.9 2.9----29.85- 75.6 74.7----
2024-05-25 09:00 pm E 1.9 2.9----29.85- 75.6 74.5----
2024-05-25 08:54 pmESE 1.0 4.1----29.84- 75.6 74.5----
2024-05-25 08:48 pmESE 1.9 2.9----29.83- 75.4 74.3----
2024-05-25 08:42 pm SE 1.9 1.9----29.83- 75.6 74.3----
2024-05-25 08:36 pm- 0.0 1.9----29.83- 76.6 74.3----
2024-05-25 08:30 pmESE 1.9 1.9----29.83- 76.5 74.3----
2024-05-25 08:24 pm SE 1.9 1.9----29.83- 76.8 74.1----
2024-05-25 08:18 pm- 0.0 1.9----29.83- 77.5 74.1----
2024-05-25 08:12 pmESE 1.0 2.9----29.83- 77.9 74.1----
2024-05-25 08:06 pm SE 1.9 2.9----29.83- 78.1 74.1----
2024-05-25 08:00 pm SE 2.9 5.1----29.83+0.02 78.6 74.1----
2024-05-25 07:54 pmESE 2.9 4.1----29.83- 78.4 74.1----
2024-05-25 07:48 pm-------29.82- 78.8 73.9----
2024-05-25 07:42 pm-------29.82- 79.0 74.1----
2024-05-25 07:36 pm-------29.82- 79.2 74.1----
2024-05-25 07:30 pm SE 1.9 4.1----29.82-- 73.9----
2024-05-25 07:24 pm SE 1.9 4.1----29.81-- 74.3----
2024-05-25 07:00 pmENE 1.0 1.0----29.80-0.01 82.8 74.3----
2024-05-25 06:54 pm- 0.0 1.9----29.80- 83.5 74.1----
2024-05-25 06:48 pmSSW 1.0 1.9----29.80-- 74.5----
2024-05-25 06:42 pmSSW 1.9 4.1----29.80-- 74.8----
2024-05-25 06:36 pm SW 1.9 5.1----29.80-- 75.0----
2024-05-25 06:30 pm SW 2.9 6.0----29.80- 84.4 75.2----
2024-05-25 06:24 pm SW 4.1 7.0----29.80- 84.4 75.2----
2024-05-25 06:18 pmWSW 4.1 8.9----29.80- 84.7 75.2----
2024-05-25 06:12 pm SW 5.1 7.0----29.80- 84.9 75.2----
2024-05-25 06:06 pm SW 5.1 8.0----29.80- 85.1 75.4----
2024-05-25 06:00 pmWSW 5.1 7.0------ 85.1 75.4----
2024-05-25 05:54 pm SW 2.9 5.1------ 85.1 75.2----
2024-05-25 05:48 pmWNW 2.9 6.0----29.80-- 75.0----
2024-05-25 05:42 pmWNW 4.1 7.0----29.80-- 74.8----
2024-05-25 05:36 pm W 2.9 8.9----29.80-- 74.8----
2024-05-25 05:30 pmWSW 4.1 8.0----29.80- 85.5-----
2024-05-25 05:24 pmWSW 4.1 7.0----29.80- 85.3-----
2024-05-25 05:18 pmWNW 1.9 5.1----29.81- 84.0 75.2----
2024-05-25 05:12 pmWNW 5.1 7.0----29.80- 83.3 75.2----
2024-05-25 05:06 pmWNW 5.1 8.0----29.80- 83.5 75.0----
2024-05-25 05:00 pmWNW 5.1 7.0----29.80-0.03 84.0 74.8----
2024-05-25 04:54 pmWNW 6.0 8.9----29.81- 83.7 74.7----